{"data":{"norad_id":65773,"epoch":"2026-09-20T15:51:33.030144Z","epoch_age_seconds":132848,"freshness":"FRESH","line1":"1 65773U 25217M   26263.66079896  .00001780  00000+0  26252-3 0  9990","line2":"2 65773  51.9022 243.5296 0000893  77.8299 282.2764 14.79926259 53993","mean_motion":14.79926259,"eccentricity":8.93e-5,"inclination_deg":51.9022,"raan_deg":243.5296,"arg_perigee_deg":77.8299,"mean_anomaly_deg":282.2764,"bstar":0.00026252,"rev_number":5399,"period_min":97.302145376691,"perigee_km":628.93112185628,"apogee_km":630.18269598841,"semimajor_km":7007.6939089223,"source":"CELESTRAK","updated_at":"2026-09-21T09:00:15.559696Z"}}